Location: Meopham
(51.3667°N, 0.3667°E)
Time: 21:22:21
(UTC+00:00)

Daily predictions for brighter satellites

Satellite Brightness Start Highest point End
(mag) Time Altitude Azimuth Time Altitude Azimuth Time Altitude Azimuth
Cosmos 2219 Rocket 2.6 20:59:24 10° NW 21:05:02 63° WSW 21:10:38 10° SSE
MOS 1 Rocket 3.6 20:59:59 10° SSE 21:05:18 78° ENE 21:10:25 10° N
ATLAS CENTAUR R/B 3.0 21:05:24 10° WSW 21:08:41 35° NW 21:12:07 10° NNE
ERS-1 Rocket 3.2 21:05:10 10° S 21:10:11 72° WSW 21:15:13 10° NNW
Cosmos 1570 Rocket 4.1 21:05:54 10° NNW 21:11:18 79° ENE 21:16:39 10° SSE
USA 281 4.5 21:06:04 10° ESE 21:11:46 33° NE 21:17:29 10° NNW
Terra 2.0 21:08:47 10° S 21:13:30 77° WSW 21:18:15 10° NNW
SPOT 5 3.9 21:12:26 10° SSW 21:16:32 39° W 21:20:49 10° NNW
Iridium 51 4.4 21:16:51 10° S 21:21:04 67° E 21:25:04 10° N
Meteor 1-4 Rocket 2.2 21:18:15 10° SSW 21:21:14 75° WNW 21:24:16 10° N
GP-B 4.2 21:19:39 10° NNE 21:23:33 30° E 21:27:24 10° SE
ARIANE 5 R/B 4.2 21:20:41 10° ESE 21:24:05 23° ENE 21:27:32 10° N
Aureole 3 4.2 21:20:47 10° SSW 21:25:24 80° WNW 21:31:14 10° N
Landsat 4 3.6 21:24:45 10° S 21:28:10 71° WSW 21:31:36 10° NNW
NOSS 0 Rocket 4.1 21:22:59 10° NNW 21:29:16 78° ENE 21:35:24 11° SE
COSMOS 2428 2.8 21:25:52 10° NNW 21:31:35 79° WSW 21:37:11 10° SSE
Cosmos 1953 2.3 21:28:08 10° NNW 21:31:59 78° W 21:35:46 10° S
Cosmos 1455 2.0 21:30:07 10° NNW 21:33:38 79° W 21:37:09 10° S
Cosmos 2360 Rocket 4.1 21:29:22 10° NW 21:33:40 23° WSW 21:37:58 10° SSW
CZ-4C R/B 2.5 21:30:33 10° S 21:34:39 35° ESE 21:39:39 10° NE
BREEZE-M DEB (TANK) 4.3 21:13:11 10° WSW 21:34:54 78° S 21:39:46 10° E
SJ 16-02 2.3 21:30:47 10° SW 21:34:59 51° WNW 21:39:15 10° NNE
SPOT 3 Rocket 3.8 21:31:03 10° S 21:36:11 67° WSW 21:41:22 10° NNW
ATLAS 2AS CENTAUR R/B 4.3 21:32:51 10° WNW 21:38:08 25° WSW 21:43:17 10° SSW
Cosmos 1745 Rocket 4.4 21:34:21 10° SSE 21:40:24 49° E 21:46:30 10° NNE
Spot 2 Rocket 4.1 21:35:53 10° S 21:40:51 53° W 21:45:51 10° NNW
Nadezhda 1 Rocket 4.1 21:36:23 10° N 21:42:39 69° ENE 21:48:28 12° SSE
Cosmos 1703 Rocket 3.6 21:42:17 10° S 21:46:44 77° E 21:51:11 10° NNE
Cosmos 1242 Rocket 1.7 21:44:58 10° SSW 21:47:42 86° W 21:50:25 10° NNE
Okean 1-7 3.3 21:44:36 10° SSW 21:48:55 68° WNW 21:53:13 10° N
Cosmos 1315 Rocket 3.4 21:46:31 10° SSW 21:50:26 58° WNW 21:54:25 10° N
Cosmos 2208 Rocket 4.2 21:48:42 10° NNW 21:53:50 65° WSW 21:58:30 12° S
SeaSat 1 3.2 21:52:49 11° S 21:57:22 44° WSW 22:02:06 10° NW
Landsat 5 3.4 21:53:31 10° NNE 21:57:39 78° ESE 22:01:53 10° S
H-2A R/B 4.0 21:56:48 10° ESE 22:00:18 27° ENE 22:03:50 10° N
COSMOS 2455 2.9 21:54:32 10° SSW 22:00:28 63° ESE 22:06:26 10° NE
CZ-2C R/B 4.5 21:57:58 10° NNE 22:02:02 34° E 22:05:09 15° SSE
Cosmos 158 Rocket 4.4 21:57:26 10° NNW 22:02:37 58° WSW 22:07:05 13° S
NOSS 8 (E) 4.3 21:59:53 10° SW 22:03:43 86° SE 22:06:47 10° NE
Cosmos 1408 2.4 22:02:05 18° SSE 22:04:05 48° E 22:07:00 10° NNE
Cosmos 1174 4.1 22:00:23 10° NW 22:05:28 85° NE 22:08:42 16° SE
Ariane Rocket 4.3 22:01:39 10° SSW 22:06:17 35° W 22:10:58 10° NNW
Cosmos 405 Rocket 3.7 22:03:48 10° N 22:07:17 34° ENE 22:09:55 15° SE
SL-4 R/B 3.3 22:05:11 10° W 22:08:23 24° SW 22:10:35 16° S
ALOS 2 4.3 22:05:07 10° ESE 22:08:34 23° ENE 22:12:00 10° N
SL-16 R/B 3.3 22:07:23 10° NNW 22:12:42 38° NE 22:18:00 10° ESE
BlueWalker 3 1.9 22:09:34 10° WSW 22:13:19 80° NNW 22:17:04 10° ENE
Cosmos 1486 Rocket 4.0 22:09:32 10° SSW 22:14:43 74° ESE 22:19:56 10° NNE
Cosmos 2237 Rocket 2.2 22:09:30 10° NNW 22:15:12 86° WSW 22:19:45 16° SSE
CENTAUR R/B 3.4 22:11:56 15° SSE 22:15:32 27° ESE 22:21:06 10° ENE
Meteor 2-5 Rocket 4.3 22:11:13 15° SSE 22:15:45 45° E 22:21:13 10° NNE
Cosmos 2227 Rocket 3.0 22:18:49 16° SSE 22:22:31 33° ESE 22:27:32 10° NE
Cosmos 1980 3.9 22:23:53 10° NW 22:29:31 67° WSW 22:33:48 18° SSE
Sich 1 Rocket 4.3 22:27:50 10° N 22:32:01 41° ENE 22:34:57 17° SE
USA 234 3.2 22:26:49 10° ENE 22:33:22 68° SE 22:39:52 10° SW
Cosmos 2242 Rocket 3.6 22:31:20 15° S 22:35:07 90° SSE 22:39:44 10° N
Cosmos 1354 Rocket 4.2 22:31:07 16° S 22:35:17 55° ESE 22:40:28 10° NNE
Okean 1 Rocket 4.3 22:34:01 10° N 22:37:58 32° ENE 22:40:58 15° SE
Cosmos 1709 Rocket 4.0 22:33:28 14° S 22:39:09 85° E 22:45:30 10° N
Cosmos 2297 Rocket 2.2 22:35:49 10° SSW 22:41:27 77° ESE 22:47:07 10° NNE
NOSS 3 (A) 3.8 22:46:57 48° NNE 22:46:57 48° NNE 22:48:15 10° NE
Cosmos 371 Rocket 3.6 22:45:48 10° SW 22:50:34 66° WNW 22:55:25 10° NNE
Terra 4.4 22:50:27 10° WSW 22:51:55 11° W 22:53:22 10° WNW
Cosmos 2219 4.1 22:51:46 19° SSE 22:54:49 32° ESE 22:59:45 10° NE
USA 281 3.3 22:50:46 18° SSE 22:55:48 76° WSW 23:02:26 10° NNW
PSLV R/B 3.8 22:52:36 10° NNE 22:56:37 82° ESE 22:59:12 21° S
Meteor 1-24 Rocket 3.7 22:52:47 16° S 22:57:21 88° ESE 23:02:53 10° NNE
Cosmos 1703 3.4 22:55:32 18° SSW 22:58:06 63° WNW 23:01:47 10° N
ARIANE 5 R/B 3.1 22:57:21 20° S 23:00:12 50° W 23:04:29 10° NNW
GP-B 4.4 22:56:46 10° NNW 23:00:45 34° WNW 23:04:42 10° SW
Orbus 7S? 4.0 22:59:32 10° NW 23:02:17 37° NNE 23:04:54 10° E
Cosmos 1025 Rocket 4.4 23:00:15 17° SE 23:02:24 25° E 23:05:56 10° NNE
Cosmos 2263 Rocket 3.3 23:01:07 19° SE 23:03:51 28° ESE 23:08:29 10° NE
EXPRESS MD2 4.2 23:02:14 10° WSW 23:02:52 14° WSW 23:02:52 14° WSW
Cosmos 2184 Rocket 4.5 22:59:57 19° SSE 23:04:18 50° E 23:10:25 10° NNE
Cosmos 1455 Rocket 4.5 23:04:15 10° N 23:08:12 30° ENE 23:11:17 14° SE
Cosmos 2084 Rocket 3.6 23:04:30 10° SW 23:08:45 70° NW 23:12:52 10° NE
Cosmos 1378 Rocket 3.5 23:10:39 23° S 23:13:22 83° E 23:17:48 10° NNE
Cosmos 1674 Rocket 3.5 23:14:09 24° S 23:16:42 76° E 23:21:01 10° NNE
Cosmos 1263 4.1 23:13:34 10° N 23:16:49 82° ENE 23:17:58 34° SSE
Spot 2 4.4 23:15:35 22° SSE 23:18:52 89° ENE 23:23:51 10° NNW
NOSS 3-2 (A) 3.6 23:18:38 22° S 23:21:44 44° ESE 23:27:34 10° NE
Cosmos 1777 Rocket 4.4 23:17:07 10° SW 23:22:21 63° WNW 23:27:37 10° NNE
Cosmos 2154 Rocket 4.3 23:18:32 21° SSE 23:22:43 55° E 23:28:51 10° NNE
CZ-4C R/B 2.9 23:18:01 10° WSW 23:22:44 54° NW 23:28:47 10° NE
Cosmos 1825 1.8 23:23:13 31° S 23:24:45 81° E 23:28:11 10° NNE
PSLV R/B 4.1 23:24:48 10° NNE 23:28:49 43° E 23:30:49 25° SSE
Cosmos 2151 Rocket 4.0 23:25:01 10° NNW 23:29:17 52° W 23:31:48 23° SSW
Cosmos 1538 Rocket 4.0 23:26:23 10° NNW 23:31:36 72° WSW 23:34:51 23° S
Cosmos 1818 3.6 23:26:42 10° NW 23:32:14 89° WSW 23:36:27 18° SE
NOSS 3-2 (C) 4.4 23:30:22 20° SSE 23:32:36 26° ESE 23:37:30 10° ENE
Okean 2 Rocket 3.6 23:29:53 10° NNW 23:34:15 52° W 23:36:50 23° SSW
H-2A R/B 3.3 23:32:47 22° SSW 23:35:05 40° W 23:39:03 10° NNW
Cosmos 1892 2.7 23:34:58 26° SSW 23:36:45 65° WNW 23:40:17 10° N
Cosmos 405 Rocket 4.4 23:39:13 10° NW 23:42:13 23° W 23:44:11 15° SW
Cosmos 1328 3.7 23:41:31 29° S 23:43:25 80° E 23:47:19 10° NNE
ALOS 2 3.0 23:42:15 24° SSW 23:44:37 51° W 23:48:55 10° NNW
Cosmos 332 Rocket 4.4 23:42:23 13° SW 23:46:38 56° WNW 23:51:28 10° NNE
COSMOS 2455 4.3 23:41:10 10° WSW 23:46:45 38° NW 23:52:23 10° NNE
Meteor 2-11 Rocket 4.5 23:45:26 22° S 23:49:27 73° E 23:55:33 10° NNE
Aureole 1 Rocket 3.2 23:48:40 28° S 23:50:43 63° ESE 23:55:46 10° NNE
Cosmos 1937 Rocket 4.2 23:48:31 22° SSE 23:51:18 39° ESE 23:56:08 10° NE
BlueWalker 3 2.2 23:47:56 10° WNW 23:51:41 66° N 23:55:24 10° E
